EW3730 Weather Reports


time (UTC)temp
F
wind
direction
speed
knots
gust
knots
rain 1hr
in
rain 24hr
in
rain mn
in
humidity
%
barometer
mb
20260503055015 38 260 0.0 0.0 0.00 0.00 0.00 54 1018.0
20260503054510 38 260 0.0 0.0 0.00 0.00 0.00 54 1018.0
20260503054003 38 260 0.0 0.0 0.00 0.00 0.00 53 1018.1
20260503053458 38 260 0.0 0.0 0.00 0.00 0.00 53 1018.1
20260503052952 38 260 0.0 0.0 0.00 0.00 0.00 52 1018.0
20260503052716 39 260 0.0 0.0 0.00 0.00 0.00 52 1018.1
20260503051939 39 260 0.0 0.0 0.00 0.00 0.00 52 1018.1
20260503051433 39 260 0.0 0.0 0.00 0.00 0.00 52 1018.0
20260503051158 39 260 0.0 0.0 0.00 0.00 0.00 52 1018.0
20260503050420 39 260 0.0 0.0 0.00 0.00 0.00 52 1018.0
20260503045914 39 260 0.0 0.0 0.00 0.00 0.00 52 1018.1
20260503045407 39 260 0.0 0.0 0.00 0.00 0.00 52 1018.1
20260503044902 39 260 0.0 0.0 0.00 0.00 0.00 52 1018.1
20260503044626 39 260 0.0 0.0 0.00 0.00 0.00 52 1018.1
20260503044121 39 260 0.0 0.0 0.00 0.00 0.00 52 1018.1
20260503043614 39 260 0.0 0.0 0.00 0.00 0.00 52 1018.0
20260503042837 39 260 0.0 0.0 0.00 0.00 0.00 52 1018.1
20260503042331 39 260 0.0 0.9 0.00 0.00 0.00 51 1018.1
20260503041826 39 260 0.0 0.9 0.00 0.00 0.00 52 1018.1
20260503041320 39 260 0.0 0.9 0.00 0.00 0.00 51 1018.0
20260503040813 39 260 0.0 1.7 0.00 0.00 0.00 51 1018.2
20260503040308 39 260 0.0 1.7 0.00 0.00 0.00 51 1018.1
20260503040032 39 260 0.0 0.0 0.00 0.00 0.00 51 1018.1
20260503035255 40 260 0.0 0.9 0.00 0.00 0.00 51 1018.1
20260503034749 40 260 0.0 0.9 0.00 0.00 0.00 51 1018.1
20260503034515 40 260 0.0 0.9 0.00 0.00 0.00 50 1018.1
20260503033738 40 260 0.0 0.9 0.00 0.00 0.00 50 1018.1
20260503033231 40 260 0.0 0.9 0.00 0.00 0.00 50 1018.2
20260503032725 40 260 0.0 0.0 0.00 0.00 0.00 50 1018.1
20260503032219 40 260 0.0 0.9 0.00 0.00 0.00 50 1018.1
20260503031713 40 260 0.0 0.9 0.00 0.00 0.00 50 1018.2
20260503031208 40 278 0.0 0.0 0.00 0.00 0.00 49 1018.2
20260503030702 40 278 0.0 0.0 0.00 0.00 0.00 49 1018.2
20260503030426 41 278 0.0 0.0 0.00 0.00 0.00 48 1018.2
20260503025652 41 278 0.0 0.0 0.00 0.00 0.00 48 1018.2
20260503025152 41 278 0.0 0.0 0.00 0.00 0.00 47 1018.2
20260503024651 42 278 0.0 0.0 0.00 0.00 0.00 47 1018.3
20260503024152 42 278 0.0 0.0 0.00 0.00 0.00 47 1018.3
20260503023652 42 278 0.0 0.0 0.00 0.00 0.00 47 1018.4
20260503023150 42 278 0.0 0.0 0.00 0.00 0.00 46 1018.3
20260503022918 42 278 0.0 0.0 0.00 0.00 0.00 45 1018.3
20260503022148 43 278 0.0 0.0 0.00 0.00 0.00 45 1018.3
20260503021919 43 278 0.0 0.0 0.00 0.00 0.00 45 1018.3
20260503021145 43 278 0.0 0.0 0.00 0.00 0.00 45 1018.2
20260503020644 43 278 0.0 0.0 0.00 0.00 0.00 44 1018.2
20260503020144 44 278 0.0 0.0 0.00 0.00 0.00 44 1018.2
20260503015644 44 278 0.0 0.0 0.00 0.00 0.00 44 1018.2
20260503015143 44 278 0.0 0.0 0.00 0.00 0.00 44 1018.2
20260503014645 44 278 0.0 0.0 0.00 0.00 0.00 43 1018.2
20260503014142 44 278 0.0 0.0 0.00 0.00 0.00 43 1018.1
20260503013642 44 278 0.0 0.0 0.00 0.00 0.00 43 1018.1
20260503013139 44 278 0.0 0.0 0.00 0.00 0.00 42 1018.1
20260503012643 44 278 0.0 0.0 0.00 0.00 0.00 42 1018.1
20260503012140 44 278 0.0 0.0 0.00 0.00 0.00 42 1018.0
20260503011910 44 278 0.0 0.0 0.00 0.00 0.00 42 1018.0
20260503011134 44 278 0.0 0.0 0.00 0.00 0.00 42 1018.1
20260503010634 45 278 0.0 0.0 0.00 0.00 0.00 42 1018.0
20260503010131 45 278 0.0 0.0 0.00 0.00 0.00 41 1018.1
20260503005633 45 278 0.0 0.0 0.00 0.00 0.00 40 1017.9
20260503005131 45 278 0.0 0.0 0.00 0.00 0.00 41 1017.9
20260503004631 45 278 0.0 0.0 0.00 0.00 0.00 40 1017.9
20260503004131 45 278 0.0 0.0 0.00 0.00 0.00 39 1017.9
20260503003903 46 278 0.0 0.0 0.00 0.00 0.00 39 1018.0
20260503003403 46 278 0.0 0.9 0.00 0.00 0.00 37 1017.9
20260503002629 46 278 0.0 0.9 0.00 0.00 0.00 36 1017.9
20260503002129 46 278 0.0 0.0 0.00 0.00 0.00 35 1018.0
20260503001630 46 278 0.0 1.7 0.00 0.00 0.00 36 1017.9
20260503001128 47 278 0.0 1.7 0.00 0.00 0.00 36 1017.8
20260503000626 47 278 0.0 2.6 0.00 0.00 0.00 35 1017.9
20260503000123 47 278 0.9 4.3 0.00 0.00 0.00 33 1017.8
20260502235624 47 315 0.9 4.3 0.00 0.00 0.00 34 1017.7
20260502235353 47 304 0.9 3.5 0.00 0.00 0.00 34 1017.9
20260502234850 47 318 0.9 5.2 0.00 0.00 0.00 34 1017.8
20260502234350 47 351 1.7 5.2 0.00 0.00 0.00 33 1017.8
20260502233620 47 333 1.7 6.1 0.00 0.00 0.00 32 1017.8
20260502233120 47 351 2.6 7.0 0.00 0.00 0.00 32 1017.8
20260502232619 47 315 2.6 7.0 0.00 0.00 0.00 32 1017.9
20260502232119 47 296 1.7 7.0 0.00 0.00 0.00 33 1017.9
20260502231616 47 306 0.9 4.3 0.00 0.01 0.00 34 1017.9
20260502231115 47 306 1.7 4.3 0.00 0.01 0.00 33 1017.9
20260502230615 47 349 1.7 7.0 0.00 0.01 0.00 33 1017.9
20260502230116 47 337 1.7 7.0 0.00 0.01 0.00 33 1017.9
20260502225615 47 344 1.7 7.8 0.00 0.01 0.00 33 1017.9
20260502225347 47 325 2.6 7.8 0.00 0.01 0.00 34 1018.0
20260502224615 47 291 2.6 7.8 0.00 0.01 0.00 32 1017.9
20260502224116 47 5 2.6 7.8 0.00 0.01 0.00 34 1018.0
20260502223615 47 305 4.3 10.4 0.00 0.01 0.00 35 1018.0
20260502223116 47 337 4.3 10.4 0.00 0.01 0.00 32 1018.0
20260502222846 47 270 2.6 7.8 0.00 0.01 0.00 34 1018.1
20260502222115 47 318 1.7 7.0 0.00 0.01 0.00 35 1018.0
20260502221615 47 332 1.7 6.1 0.00 0.01 0.00 35 1018.0
20260502221115 47 336 2.6 8.7 0.00 0.01 0.00 34 1018.0
20260502220615 47 355 3.5 8.7 0.00 0.01 0.00 34 1018.1
20260502220118 47 294 2.6 7.0 0.00 0.01 0.00 34 1018.0
20260502215617 47 289 2.6 7.0 0.00 0.01 0.00 33 1018.0
20260502215118 47 336 2.6 6.1 0.00 0.01 0.00 33 1018.0
20260502214617 47 322 2.6 6.1 0.00 0.01 0.00 34 1018.0
20260502214118 47 297 2.6 7.0 0.00 0.01 0.00 36 1018.1
20260502213615 47 311 2.6 7.8 0.00 0.01 0.00 34 1018.0
20260502213116 47 334 3.5 9.6 0.00 0.01 0.00 34 1018.0
20260502212616 47 331 4.3 9.6 0.00 0.01 0.00 35 1018.0
20260502212116 47 355 4.3 9.6 0.00 0.01 0.00 35 1018.0
20260502211844 47 320 3.5 9.6 0.00 0.01 0.00 33 1018.0
20260502211113 47 331 2.6 7.8 0.00 0.01 0.00 37 1017.9
20260502210611 47 345 2.6 7.8 0.00 0.01 0.00 35 1017.9
20260502210109 47 319 2.6 7.8 0.00 0.01 0.00 35 1018.0
20260502205608 47 302 2.6 7.8 0.00 0.01 0.00 34 1017.9
20260502205101 47 308 2.6 9.6 0.00 0.01 0.00 35 1017.9
20260502204557 47 308 3.5 9.6 0.00 0.01 0.00 33 1018.0
20260502204055 47 349 3.5 9.6 0.00 0.01 0.00 33 1018.0
20260502203555 47 331 3.5 9.6 0.00 0.01 0.00 35 1018.0
20260502203053 47 307 2.6 9.6 0.00 0.01 0.00 35 1018.0
20260502202554 47 340 1.7 6.1 0.00 0.01 0.00 35 1018.0
20260502202051 47 257 2.6 7.8 0.00 0.01 0.00 37 1018.1
20260502201554 47 325 3.5 7.8 0.00 0.01 0.00 35 1018.1
20260502201051 47 324 2.6 7.8 0.00 0.01 0.00 36 1018.1
20260502200820 47 335 2.6 7.0 0.00 0.01 0.00 36 1018.1
20260502200047 47 255 3.5 7.8 0.00 0.01 0.00 34 1018.2
20260502195818 46 346 3.5 10.4 0.00 0.01 0.00 34 1018.2
20260502195047 46 5 3.5 10.4 0.00 0.01 0.00 34 1018.3
20260502194547 46 5 2.6 8.7 0.00 0.01 0.00 36 1018.4
20260502194047 46 343 2.6 8.7 0.00 0.01 0.00 36 1018.3
20260502193548 46 327 3.5 7.8 0.00 0.01 0.00 37 1018.4
20260502193045 47 13 3.5 9.6 0.00 0.01 0.00 36 1018.5
20260502192545 47 298 3.5 9.6 0.00 0.01 0.00 35 1018.3
20260502192047 47 259 3.5 7.8 0.00 0.01 0.00 35 1018.5
20260502191541 48 290 3.5 7.8 0.00 0.01 0.00 34 1018.6
20260502191035 47 279 3.5 7.8 0.00 0.01 0.00 39 1018.5
20260502190529 47 341 3.5 7.8 0.00 0.01 0.00 36 1018.6
20260502190023 47 5 2.6 7.8 0.00 0.01 0.00 37 1018.6
20260502185518 47 311 2.6 8.7 0.00 0.01 0.00 39 1018.7
20260502185011 47 293 3.5 8.7 0.00 0.01 0.00 36 1018.7
20260502184505 46 333 3.5 7.8 0.00 0.01 0.00 35 1018.7
20260502183958 47 280 3.5 7.8 0.00 0.01 0.00 35 1018.7
20260502183453 47 342 3.5 7.8 0.00 0.01 0.00 34 1018.7
20260502183217 47 286 3.5 8.7 0.00 0.01 0.00 37 1018.7
20260502182441 47 312 2.6 8.7 0.00 0.01 0.00 37 1018.8
20260502182206 47 344 2.6 8.7 0.00 0.01 0.00 37 1018.8
20260502181429 46 348 4.3 9.6 0.00 0.01 0.00 36 1018.8
20260502180923 47 309 4.3 9.6 0.00 0.01 0.00 35 1018.9
20260502180417 47 311 3.5 8.7 0.00 0.01 0.00 34 1018.9
20260502170305 46 327 2.6 7.0 0.00 0.01 0.00 37 1019.3
20260502164241 46 339 2.6 7.0 0.00 0.01 0.00 38 1019.4
20260502163735 46 346 3.5 7.8 0.00 0.01 0.00 36 1019.4
20260502163229 47 349 2.6 8.7 0.00 0.01 0.00 37 1019.5
20260502162723 47 313 2.6 7.8 0.00 0.01 0.00 41 1019.5
20260502162216 46 303 2.6 5.2 0.00 0.01 0.00 38 1019.5
20260502161941 46 337 3.5 9.6 0.00 0.01 0.00 40 1019.5
20260502161205 46 5 3.5 9.6 0.00 0.01 0.00 40 1019.8
20260502160659 45 348 2.6 7.8 0.00 0.01 0.00 39 1019.7
20260502160153 45 346 3.5 7.8 0.00 0.01 0.00 40 1019.8
20260502152105 45 290 3.5 9.6 0.00 0.01 0.00 43 1019.6
20260502151559 46 277 1.7 9.6 0.00 0.01 0.00 43 1019.6
20260502151324 46 300 2.6 7.8 0.00 0.01 0.00 42 1019.6
20260502150551 45 329 2.6 7.8 0.00 0.01 0.00 43 1019.7
20260502130537 38 330 2.6 6.1 0.00 0.09 0.00 53 1019.3
20260502123535 37 0 0.9 4.3 0.00 0.14 0.00 56 1018.9
20260502123033 37 327 0.9 3.5 0.00 0.15 0.00 56 1018.7
20260502122804 36 333 1.7 6.1 0.00 0.16 0.00 57 1018.8
20260502122306 36 342 2.6 7.0 0.00 0.17 0.00 56 1018.7
20260502121535 35 328 2.6 7.8 0.00 0.18 0.00 56 1018.7
20260502121035 35 317 1.7 7.8 0.00 0.19 0.00 57 1018.6
20260502120534 35 339 1.7 6.1 0.00 0.20 0.00 57 1018.5
20260502115803 35 327 1.7 7.0 0.00 0.20 0.00 57 1018.6
20260502115033 35 309 1.7 7.0 0.00 0.20 0.00 57 1018.6
20260502114533 34 327 1.7 5.2 0.00 0.21 0.00 58 1018.6
20260502114033 33 347 0.9 4.3 0.00 0.22 0.00 59 1018.8
20260502114029 34 338 0.9 7.0 0.00 0.21 0.00 59 1018.7
20260502113029 33 280 0.9 3.5 0.00 0.23 0.00 60 1018.7
20260502112527 33 345 0.9 2.6 0.00 0.24 0.00 60 1018.7
20260502112257 32 336 0.0 1.7 0.00 0.25 0.00 60 1018.6
20260502111527 32 338 0.0 1.7 0.00 0.26 0.00 61 1018.7
20260502111027 32 317 0.0 1.7 0.00 0.27 0.00 61 1018.5
20260502110526 32 317 0.0 2.6 0.00 0.28 0.00 61 1018.4
20260502110257 32 317 0.0 2.6 0.00 0.29 0.00 61 1018.4
20260502105522 32 317 0.0 0.9 0.00 0.30 0.00 61 1018.5
20260502105254 32 311 0.0 1.7 0.00 0.31 0.00 61 1018.4
20260502104523 32 297 0.0 1.7 0.00 0.32 0.00 61 1018.3
20260502104254 32 296 0.0 0.0 0.00 0.33 0.00 61 1018.3
20260502103522 32 296 0.0 0.9 0.00 0.33 0.00 61 1018.3
20260502103022 32 296 0.0 1.7 0.00 0.34 0.00 61 1018.2
20260502102754 32 296 0.0 1.7 0.00 0.34 0.00 61 1018.1
20260502102023 32 295 0.0 0.9 0.00 0.34 0.00 61 1018.2
20260502101523 32 295 0.0 1.7 0.00 0.34 0.00 61 1018.2
20260502101018 32 295 0.0 1.7 0.00 0.34 0.00 61 1018.1
20260502100518 32 295 0.0 1.7 0.00 0.35 0.00 61 1018.1
20260502091508 33 295 0.0 0.9 0.00 0.35 0.00 59 1018.0
20260502091010 33 295 0.0 0.0 0.00 0.35 0.00 59 1018.0
20260502090504 33 295 0.0 0.0 0.00 0.35 0.00 59 1018.1
20260502090226 34 295 0.0 0.0 0.00 0.35 0.00 58 1018.1
20260502070915 36 308 0.9 5.2 0.00 0.37 0.00 57 1017.9
20260502070410 35 320 0.9 5.2 0.00 0.37 0.00 58 1018.0
20260502065904 35 308 0.0 0.9 0.00 0.37 0.00 59 1018.1
20260502065358 36 308 0.0 1.7 0.00 0.37 0.00 59 1018.1
20260502064851 36 308 0.0 1.7 0.00 0.37 0.00 59 1018.1
20260502064345 36 306 0.0 0.0 0.00 0.37 0.00 59 1018.0
20260502063840 36 306 0.0 0.0 0.00 0.37 0.00 59 1018.1
20260502063334 36 306 0.0 0.0 0.00 0.37 0.00 59 1018.1